TimeCDT,TemperatureF,Dew PointF,Humidity,Sea Level PressureIn,VisibilityMPH,Wind Direction,Wind SpeedMPH,Gust SpeedMPH,PrecipitationIn,Events,Conditions,WindDirDegrees,DateUTC
12:52 AM,57.0,44.1,62,30.01,10.0,SSE,6.9,-,N/A,,Clear,150,2012-11-01 05:52:00
1:52 AM,55.9,43.0,62,30.01,10.0,South,3.5,-,N/A,,Clear,170,2012-11-01 06:52:00
2:52 AM,57.0,43.0,59,30.00,10.0,South,5.8,-,N/A,,Clear,180,2012-11-01 07:52:00
3:52 AM,55.9,42.1,60,30.00,10.0,South,5.8,-,N/A,,Clear,180,2012-11-01 08:52:00
4:52 AM,54.0,42.1,64,29.98,10.0,South,5.8,-,N/A,,Clear,180,2012-11-01 09:52:00
5:52 AM,55.0,44.1,67,29.98,10.0,SSW,4.6,-,N/A,,Clear,200,2012-11-01 10:52:00
6:52 AM,57.0,46.0,67,29.99,10.0,SSW,4.6,-,N/A,,Clear,210,2012-11-01 11:52:00
7:52 AM,55.0,46.9,74,30.01,10.0,SW,3.5,-,N/A,,Clear,230,2012-11-01 12:52:00
8:52 AM,60.1,51.1,72,30.03,10.0,Calm,Calm,-,N/A,,Clear,0,2012-11-01 13:52:00
9:52 AM,66.0,54.0,65,30.05,10.0,Calm,Calm,-,N/A,,Clear,0,2012-11-01 14:52:00
10:52 AM,72.0,57.0,59,30.05,10.0,Calm,Calm,-,N/A,,Clear,0,2012-11-01 15:52:00
11:52 AM,78.1,50.0,37,30.03,10.0,SW,16.1,-,N/A,,Clear,220,2012-11-01 16:52:00
12:52 PM,80.1,48.9,34,30.01,10.0,SW,13.8,-,N/A,,Clear,220,2012-11-01 17:52:00
1:52 PM,82.0,46.0,28,29.98,10.0,SSW,13.8,-,N/A,,Clear,200,2012-11-01 18:52:00
2:52 PM,82.0,46.0,28,29.95,10.0,SW,10.4,-,N/A,,Clear,220,2012-11-01 19:52:00
3:52 PM,82.9,44.1,25,29.94,10.0,South,11.5,18.4,N/A,,Clear,190,2012-11-01 20:52:00
4:52 PM,82.0,41.0,23,29.93,10.0,SSW,11.5,-,N/A,,Clear,210,2012-11-01 21:52:00
5:52 PM,80.1,43.0,27,29.92,10.0,South,8.1,-,N/A,,Clear,190,2012-11-01 22:52:00
6:52 PM,75.0,46.9,37,29.93,9.0,SSE,4.6,-,N/A,,Clear,150,2012-11-01 23:52:00
7:52 PM,69.1,48.0,47,29.95,10.0,SE,6.9,-,N/A,,Clear,140,2012-11-02 00:52:00
8:52 PM,61.0,48.9,64,29.95,10.0,South,6.9,-,N/A,,Clear,180,2012-11-02 01:52:00
9:52 PM,61.0,48.0,62,29.95,10.0,South,6.9,-,N/A,,Clear,170,2012-11-02 02:52:00
10:52 PM,62.1,45.0,53,29.95,10.0,South,8.1,-,N/A,,Clear,170,2012-11-02 03:52:00
11:52 PM,64.0,46.0,52,29.93,10.0,South,8.1,-,N/A,,Clear,180,2012-11-02 04:52:00